Wind_Speed
36 50 47 58 58 54 49 40 40 39 38 39 45 50 42 44 60 61 63 64 61 55 54 50 49 48 44 42 45 46 44 45 44 42 40 39 39 39 38 37 37 36 36 36
44 39 44 55 54 52 48 41 32 33 39 37 45 47 47 44 52 63 61 61 59 56 52 50 50 49 49 45 42 43 44 44 45 43 43 42 42 42 41 40 40 39 39 39
42 37 34 49 51 45 45 38 35 28 31 35 42 46 47 41 39 62 62 57 56 54 54 54 52 50 49 50 47 44 44 45 45 44 44 43 43 44 44 44 43 43 43 42
47 44 32 34 48 45 41 37 32 31 29 28 33 41 50 47 45 39 63 63 57 55 55 53 54 57 54 52 50 49 49 49 50 49 48 48 48 48 48 47 46 46 45 45
43 38 25 29 40 44 38 34 28 26 28 27 29 31 36 42 44 44 46 65 69 62 60 55 55 54 55 56 52 53 55 55 53 51 50 51 50 50 49 49 48 48 48 48
42 13 19 28 34 42 39 33 30 27 27 26 23 24 23 26 34 44 51 41 62 65 66 57 56 56 55 51 55 57 58 60 59 57 54 53 53 54 53 53 54 54 53 53
36 22 21 23 30 35 39 35 32 29 27 24 22 19 11 20 29 38 40 56 43 49 56 50 48 50 51 52 51 54 55 56 55 54 54 56 58 59 58 56 55 55 55 55
37 27 18 25 26 28 37 35 34 32 30 22 21 17 12 17 23 27 34 46 46 39 40 51 51 54 54 55 51 50 50 49 49 50 50 50 52 54 54 55 55 55 55 56
39 24 22 23 26 29 33 35 35 33 31 24 22 21 15 17 15 19 23 26 34 41 45 44 46 49 53 53 53 53 53 50 49 49 51 51 52 52 52 52 53 54 55 56
35 26 19 21 23 26 26 30 33 33 33 29 27 24 21 18 16 17 19 21 23 25 30 36 40 42 53 56 57 56 56 53 53 49 49 50 51 52 53 55 56 57 57 56
34 25 19 22 22 22 24 26 32 35 36 32 30 28 21 20 19 18 17 16 21 24 25 28 34 43 47 56 56 55 54 53 53 53 53 52 51 51 53 54 55 54 52 50
25 23 17 21 17 18 18 23 26 29 30 31 31 30 26 24 23 22 22 18 17 20 25 29 31 36 41 46 50 61 62 56 57 56 56 55 54 53 53 53 52 51 49 47
21 19 24 22 21 20 19 17 22 26 28 30 31 33 26 25 20 22 24 24 23 21 22 27 33 35 38 42 47 51 53 54 55 56 57 57 56 54 55 54 53 51 48 46
15 17 22 22 21 21 21 21 23 27 32 32 33 32 25 24 24 24 29 29 27 26 25 26 28 32 37 40 42 46 50 54 56 56 56 55 53 54 54 54 54 50 47 45
21 21 23 25 25 23 25 26 28 30 28 30 26 33 27 25 29 30 32 32 29 28 28 29 30 31 33 38 40 40 42 44 46 49 51 51 52 51 50 49 48 47 46 44
19 21 24 24 23 24 26 28 30 32 33 35 36 35 33 29 31 31 31 33 32 31 29 31 32 31 34 37 40 41 42 43 44 45 46 47 47 46 46 45 43 41 43 41
15 17 22 25 27 26 25 25 27 28 29 33 39 36 39 36 36 34 33 32 35 32 33 31 31 31 31 34 37 40 41 43 45 46 47 47 46 47 44 44 39 40 40 40
16 18 20 21 24 28 24 25 27 28 27 29 29 32 34 31 29 33 32 31 32 35 36 29 29 31 33 34 35 36 37 39 40 41 44 47 44 43 43 42 44 44 48 52
17 20 21 21 22 24 22 23 25 23 23 25 24 24 24 26 25 28 36 40 38 33 30 31 29 30 32 30 28 32 37 40 40 37 34 37 37 34 33 34 35 32 32 33
17 18 20 20 21 21 17 20 23 23 24 23 23 23 24 25 25 28 28 29 30 30 26 24 24 25 26 25 25 24 23 23 22 29 27 32 28 28 29 34 37 35 32 32
21 21 20 22 22 19 20 20 21 22 22 22 23 23 24 24 26 27 27 25 23 24 26 25 23 23 24 25 27 24 25 23 22 21 23 26 30 33 29 29 29 29 29 30
27 25 22 25 25 21 21 22 22 22 21 21 21 22 22 21 24 27 29 29 28 27 27 27 26 25 25 25 26 27 28 25 25 23 24 26 24 25 26 26 26 26 26 26
26 27 27 26 25 25 23 22 22 22 22 21 21 22 23 22 22 24 26 27 27 27 26 26 27 28 28 27 26 25 24 25 27 26 26 28 30 30 30 27 25 24 25 26
24 25 23 24 25 27 25 24 23 22 23 24 22 22 22 24 23 22 24 25 25 25 24 23 24 26 27 27 27 26 27 28 26 25 25 24 23 26 30 29 27 25 25 25
25 28 30 30 30 33 31 29 26 25 25 24 24 23 23 23 23 23 23 24 24 23 21 22 23 23 24 24 25 26 25 26 27 26 25 25 25 24 27 29 28 28 28 27
20 19 22 20 22 25 28 32 32 32 28 25 24 24 24 22 23 23 24 24 25 25 26 26 26 25 27 28 27 27 29 32 27 29 27 27 27 27 26 27 32 32 30 31
Wind_Direction
177 193 197 195 195 199 201 202 205 209 214 218 217 220 219 216 218 222 222 226 227 226 226 225 226 230 231 235 231 234 234 239 242 244 246 249 249 252 256 260 263 266 269 274
180 187 191 195 196 201 202 204 201 211 216 221 220 217 210 212 219 219 224 227 229 229 226 227 230 230 231 234 236 238 239 243 244 247 250 252 255 258 260 264 267 270 273 275
172 170 180 195 197 201 203 204 202 205 214 220 225 231 221 214 218 219 218 223 231 232 231 230 233 234 234 236 237 239 241 246 248 250 252 254 256 259 262 265 267 270 273 276
177 181 188 199 203 200 205 206 206 214 217 221 227 232 231 235 230 231 221 223 227 232 233 233 233 234 238 236 240 241 244 249 252 254 256 257 258 260 262 264 267 271 275 277
164 162 178 191 197 200 206 204 207 213 220 225 230 240 234 238 236 237 225 227 228 231 235 234 239 238 236 237 241 244 245 246 248 252 257 260 261 262 264 266 269 271 272 273
172 165 164 188 196 200 203 203 206 209 218 220 224 236 231 239 242 234 230 227 225 232 236 236 237 238 238 240 240 243 248 248 249 251 252 255 257 259 261 263 265 266 269 271
148 123 170 180 190 197 201 204 203 208 213 211 210 221 216 231 239 239 242 231 238 229 228 225 228 238 246 247 245 244 247 249 250 251 252 253 255 257 259 260 262 265 268 270
157 139 160 187 193 202 203 205 207 210 212 208 209 217 201 221 223 226 236 239 243 249 239 235 240 243 242 243 243 243 244 246 247 249 250 253 255 257 260 263 264 266 268 270
170 161 167 182 184 195 202 206 210 215 221 223 218 227 218 224 229 228 224 227 239 246 247 239 237 240 241 242 243 243 245 248 247 251 253 254 257 259 261 264 266 268 269 270
174 174 175 180 183 197 201 206 212 219 228 228 226 237 234 232 232 223 226 227 232 235 235 237 237 240 240 240 242 243 244 245 249 250 252 255 257 259 261 263 265 266 269 271
190 186 185 183 197 199 209 218 219 221 229 231 231 238 241 243 244 240 237 238 242 241 239 234 235 233 234 238 237 238 241 242 246 250 252 253 255 257 259 261 263 265 268 271
183 194 200 206 205 205 216 222 221 221 225 230 231 235 238 244 253 255 262 259 254 254 247 243 243 241 243 243 240 241 241 244 248 250 252 253 254 256 258 260 261 263 265 268
204 206 207 208 213 213 217 227 231 233 232 231 237 238 237 245 264 262 262 261 261 255 256 249 240 236 240 244 248 249 248 246 248 253 256 257 258 259 260 261 262 263 266 267
192 199 198 205 212 227 234 234 232 232 229 234 234 242 240 241 247 252 252 255 260 270 271 264 254 245 241 240 243 247 251 255 256 258 260 261 261 261 261 264 265 267 268 269
192 197 205 213 220 234 243 241 240 239 245 238 242 242 243 246 254 258 261 255 258 263 269 271 263 254 248 246 246 246 248 251 253 257 262 265 267 268 269 271 271 269 270 268
215 213 218 224 225 234 240 245 249 248 247 246 250 238 252 249 253 258 260 257 254 260 273 275 266 258 253 249 249 253 255 257 259 261 261 261 263 265 265 266 268 263 266 264
234 234 237 239 246 246 241 255 251 259 258 254 253 257 258 258 258 257 258 257 258 262 267 267 264 260 258 257 255 254 256 259 260 262 259 258 258 261 260 263 261 260 256 259
239 241 241 242 248 253 259 257 256 254 259 257 254 255 258 258 254 247 248 248 257 264 262 261 260 260 261 261 260 260 262 263 264 268 268 261 262 264 263 255 255 255 259 264
245 245 249 249 247 255 255 253 255 258 253 254 251 251 254 253 249 245 247 246 255 261 250 255 262 264 257 258 264 263 262 264 263 269 268 260 262 263 264 262 260 262 262 263
249 251 250 251 251 252 251 250 247 251 250 253 255 248 243 237 236 242 241 246 250 247 251 251 250 261 255 255 260 264 262 260 265 260 262 257 258 260 261 265 259 263 264 264
255 255 254 256 259 258 256 251 254 255 256 252 253 252 251 250 248 244 250 251 250 251 248 248 250 254 260 257 254 261 260 263 268 268 264 259 260 261 259 265 262 264 261 258
257 258 258 260 264 264 261 260 260 261 262 260 258 255 251 248 245 242 245 249 250 251 251 250 249 249 253 255 253 255 256 257 260 262 263 272 268 262 262 265 263 259 259 256
259 260 262 263 264 265 265 262 264 265 263 263 261 259 253 250 251 248 245 246 249 250 251 252 250 248 248 251 252 252 257 259 259 262 265 272 268 267 266 261 258 260 258 258
264 263 265 264 265 267 266 263 263 265 268 268 264 259 254 253 253 251 253 253 252 253 254 253 248 248 249 251 252 253 254 255 257 260 267 272 272 270 262 258 254 254 256 258
270 267 265 264 262 265 267 268 267 266 265 264 263 259 255 255 254 250 251 253 253 253 251 251 248 248 251 253 256 254 248 252 254 257 262 270 269 272 267 258 256 257 257 258
269 268 274 278 270 267 268 267 268 267 268 264 259 260 257 256 257 254 249 249 252 252 254 255 254 253 252 254 253 252 256 246 251 257 266 270 271 268 271 274 265 259 260 263
Height
5626 5636 5646 5657 5668 5675 5687 5695 5701 5710 5718 5723 5727 5732 5739 5745 5752 5757 5763 5771 5777 5786 5794 5800 5805 5810 5815 5818 5822 5826 5829 5833 5837 5840 5843 5846 5847 5848 5849 5850 5851 5851 5852 5852
5626 5636 5646 5655 5665 5676 5685 5692 5699 5706 5713 5718 5721 5727 5733 5739 5744 5751 5758 5763 5772 5779 5787 5793 5798 5803 5807 5812 5816 5819 5822 5826 5829 5833 5835 5838 5839 5841 5843 5843 5844 5844 5844 5844
5629 5639 5646 5655 5665 5674 5684 5692 5698 5705 5710 5715 5719 5723 5730 5736 5739 5744 5750 5758 5764 5773 5780 5786 5791 5795 5800 5804 5808 5813 5816 5819 5822 5825 5828 5830 5832 5833 5835 5836 5836 5836 5836 5836
5631 5640 5649 5656 5665 5674 5683 5690 5697 5703 5708 5713 5716 5720 5725 5728 5732 5738 5746 5752 5758 5763 5769 5776 5781 5786 5792 5797 5801 5805 5808 5811 5814 5817 5820 5822 5824 5825 5826 5827 5828 5828 5828 5828
5637 5644 5651 5657 5664 5674 5682 5689 5696 5702 5705 5709 5711 5714 5720 5722 5729 5734 5739 5742 5746 5753 5760 5766 5772 5777 5782 5788 5792 5796 5799 5802 5805 5808 5810 5813 5814 5816 5817 5818 5819 5819 5819 5819
5639 5646 5651 5657 5664 5672 5681 5689 5695 5700 5702 5706 5709 5711 5715 5716 5719 5723 5728 5731 5736 5744 5753 5757 5762 5769 5774 5778 5782 5786 5788 5791 5795 5798 5800 5803 5805 5806 5808 5809 5810 5810 5810 5810
5641 5646 5653 5658 5665 5672 5679 5687 5693 5698 5700 5702 5705 5707 5711 5710 5711 5715 5720 5725 5730 5737 5743 5748 5754 5760 5764 5767 5770 5773 5777 5780 5783 5787 5790 5792 5794 5796 5798 5799 5800 5800 5800 5800
5642 5650 5654 5660 5666 5674 5679 5686 5691 5695 5697 5700 5702 5704 5708 5707 5707 5709 5713 5717 5724 5730 5736 5741 5746 5749 5753 5757 5760 5764 5767 5770 5773 5775 5778 5780 5783 5785 5786 5787 5788 5788 5788 5788
5646 5652 5656 5660 5667 5673 5677 5682 5688 5692 5694 5699 5700 5703 5706 5706 5707 5707 5709 5712 5717 5723 5728 5732 5735 5739 5742 5746 5750 5754 5757 5760 5763 5766 5768 5770 5771 5773 5774 5775 5776 5776 5776 5776
5650 5655 5658 5662 5667 5672 5675 5681 5685 5688 5691 5695 5697 5699 5701 5702 5704 5705 5706 5706 5710 5714 5718 5722 5725 5730 5733 5737 5740 5743 5747 5750 5753 5755 5757 5759 5760 5762 5763 5764 5764 5764 5765 5765
5652 5657 5661 5662 5665 5670 5674 5677 5681 5684 5687 5690 5693 5696 5697 5698 5699 5700 5703 5703 5704 5707 5710 5712 5716 5720 5723 5726 5729 5733 5737 5740 5742 5744 5746 5747 5749 5750 5751 5752 5753 5753 5754 5754
5652 5656 5659 5663 5666 5669 5672 5675 5677 5680 5684 5685 5688 5692 5693 5694 5694 5694 5696 5699 5700 5701 5703 5705 5708 5711 5713 5715 5719 5723 5726 5728 5731 5733 5735 5737 5738 5739 5741 5742 5742 5743 5743 5743
5652 5655 5658 5661 5666 5667 5669 5672 5674 5677 5679 5681 5684 5686 5689 5690 5691 5691 5691 5692 5693 5695 5697 5698 5699 5702 5705 5708 5710 5712 5714 5717 5720 5722 5723 5725 5726 5728 5730 5731 5732 5732 5732 5732
5649 5651 5656 5660 5663 5665 5667 5669 5670 5671 5672 5675 5677 5679 5684 5686 5686 5685 5685 5686 5688 5689 5690 5691 5693 5694 5696 5698 5701 5703 5705 5707 5709 5711 5713 5714 5715 5717 5718 5719 5720 5721 5721 5721
5650 5652 5655 5657 5659 5661 5663 5664 5666 5667 5668 5669 5673 5674 5677 5678 5678 5679 5680 5681 5682 5683 5683 5684 5685 5685 5687 5689 5691 5693 5694 5696 5698 5699 5701 5703 5704 5705 5706 5707 5707 5708 5709 5710
5648 5649 5650 5652 5655 5656 5658 5659 5660 5662 5663 5663 5664 5668 5667 5669 5671 5672 5673 5675 5676 5677 5677 5676 5676 5678 5679 5680 5681 5684 5685 5686 5687 5688 5689 5691 5692 5693 5694 5694 5695 5696 5697 5698
5645 5646 5647 5649 5649 5651 5653 5654 5654 5655 5656 5657 5658 5659 5658 5661 5664 5665 5666 5666 5669 5670 5669 5669 5669 5671 5672 5673 5674 5676 5677 5678 5678 5678 5678 5678 5679 5681 5682 5683 5684 5685 5685 5685
5643 5643 5644 5645 5645 5645 5648 5647 5647 5647 5648 5648 5649 5649 5650 5652 5655 5658 5659 5660 5661 5661 5660 5661 5662 5663 5663 5664 5665 5666 5666 5667 5667 5667 5667 5667 5668 5669 5670 5671 5672 5673 5674 5674
5638 5639 5639 5640 5641 5641 5641 5641 5640 5640 5641 5640 5642 5642 5642 5644 5646 5647 5649 5651 5652 5652 5653 5653 5654 5654 5654 5655 5656 5656 5656 5657 5657 5657 5657 5658 5659 5660 5660 5660 5660 5661 5662 5663
5633 5634 5635 5636 5636 5636 5637 5636 5635 5635 5635 5635 5635 5636 5636 5637 5639 5638 5640 5642 5644 5645 5645 5646 5648 5647 5647 5649 5650 5650 5649 5649 5649 5648 5649 5650 5651 5651 5652 5652 5652 5653 5654 5655
5628 5628 5629 5629 5629 5631 5630 5630 5630 5629 5632 5629 5629 5629 5629 5630 5631 5631 5633 5635 5636 5637 5639 5640 5641 5641 5641 5641 5642 5643 5643 5643 5643 5643 5643 5643 5643 5644 5644 5644 5644 5645 5646 5647
5622 5622 5623 5623 5623 5625 5624 5624 5624 5624 5622 5622 5622 5621 5621 5622 5623 5625 5625 5626 5628 5629 5630 5631 5632 5633 5633 5633 5634 5635 5636 5637 5637 5637 5637 5636 5636 5636 5636 5637 5637 5638 5639 5639
5616 5616 5617 5617 5616 5616 5617 5617 5617 5616 5616 5615 5615 5614 5614 5615 5615 5616 5618 5619 5620 5621 5621 5622 5623 5624 5625 5626 5627 5628 5629 5630 5630 5630 5630 5630 5630 5630 5630 5630 5631 5631 5632 5632
5610 5608 5609 5610 5609 5607 5608 5609 5609 5609 5608 5608 5608 5607 5608 5608 5608 5609 5610 5610 5611 5613 5614 5615 5615 5616 5617 5619 5620 5621 5621 5622 5622 5623 5623 5623 5622 5622 5622 5623 5623 5623 5624 5625
5603 5602 5601 5602 5601 5599 5599 5600 5600 5601 5601 5600 5601 5601 5600 5601 5602 5602 5603 5604 5605 5606 5606 5607 5608 5609 5611 5611 5612 5613 5614 5615 5615 5616 5616 5616 5616 5615 5615 5615 5616 5616 5616 5617
5597 5596 5595 5595 5592 5591 5591 5590 5590 5592 5593 5593 5593 5593 5594 5594 5595 5595 5595 5596 5597 5598 5599 5600 5601 5602 5603 5603 5604 5606 5607 5607 5608 5608 5608 5608 5608 5608 5608 5607 5607 5607 5608 5608